This is the latest recevied weather packets stored in our database for station/object KA1AL. If no packets are shown the sender has not sent any weather packets the latest 10 day(s).
| Time | Temp. | Humidity | Pressure | Rain* | Wind** | Luminosity | Snow |
|---|---|---|---|---|---|---|---|
| 1777734767 | 5° C | 81% | 1012.9 hPa | 0 mm | - | 165 W/m² | - |
| 1777734465 | 5° C | 79% | 1012.8 hPa | 0 mm | - | 203 W/m² | - |
| 1777734162 | 5.56° C | 78% | 1012.7 hPa | 0 mm | - | 213 W/m² | - |
| 1777733858 | 5.56° C | 76% | 1012.9 hPa | 0 mm | - | 191 W/m² | - |
| 1777733554 | 5° C | 76% | 1012.9 hPa | 0 mm | - | 221 W/m² | - |
| 1777733251 | 5° C | 76% | 1012.7 hPa | 0 mm | - | 200 W/m² | - |
| 1777732948 | 5.56° C | 74% | 1012.6 hPa | 0 mm | - | 226 W/m² | - |
| 1777732644 | 5.56° C | 72% | 1012.7 hPa | 0 mm | - | 279 W/m² | - |
| 1777732341 | 5.56° C | 72% | 1013 hPa | 0 mm | - | 263 W/m² | - |
| 1777732039 | 5.56° C | 74% | 1013 hPa | 0 mm | - | 267 W/m² | - |
| 1777731735 | 5.56° C | 75% | 1012.8 hPa | 0 mm | - | 272 W/m² | - |
| 1777731433 | 5.56° C | 74% | 1013.1 hPa | 0 mm | - | 206 W/m² | - |
| 1777731131 | 5.56° C | 76% | 1012.8 hPa | 0 mm | - | 166 W/m² | - |
| 1777730526 | 5.56° C | 77% | 1013.1 hPa | 0 mm | - | 154 W/m² | - |
| 1777730221 | 5.56° C | 78% | 1013.1 hPa | 0 mm | - | 132 W/m² | - |
| 1777729919 | 5.56° C | 77% | 1013.1 hPa | 0 mm | - | 128 W/m² | - |
| 1777729614 | 5.56° C | 78% | 1013 hPa | 0 mm | - | 166 W/m² | - |
| 1777729312 | 5.56° C | 78% | 1012.9 hPa | 0 mm | - | 188 W/m² | - |
| 1777729008 | 5.56° C | 80% | 1013.3 hPa | 0 mm | - | 125 W/m² | - |
| 1777728705 | 6.11° C | 78% | 1013 hPa | 0 mm | - | 165 W/m² | - |
| 1777728401 | 5.56° C | 80% | 1013.1 hPa | 0 mm | - | 306 W/m² | - |
| 1777728099 | 5.56° C | 80% | 1013 hPa | 0 mm | - | 351 W/m² | - |
| 1777727796 | 5.56° C | 79% | 1012.9 hPa | 0 mm | - | 225 W/m² | - |
| 1777727493 | 5.56° C | 81% | 1012.8 hPa | 0 mm | - | 246 W/m² | - |
| 1777727190 | 5° C | 79% | 1013.1 hPa | 0 mm | - | 258 W/m² | - |
* Rain latest hour (hover to see other rain measurements)
** Current wind speed in m/s (hover to see current wind gust speed)